[[{"header":{"parameterUnit":"m.s-1","parameterCategory":1,"la1":30.2991,"la2":30.254,"lo1":-89.0895,"lo2":-89.0444,"dy":0.0017,"dx":0.0017,"nx":28,"ny":28,"refTime":"2025-12-05T09:00:00:Z","depth":0,"parameterNumber":2,"parameterNumberName":"U-component_of_WINDS"},"data":[0,0,0,0,0,0,0,0,0,0,0,0,0,0,0,0,0,0,0,0,0,0,0,0,0,0,0,0,0,0,0,0,0,0,0,0,0,0,0,0,0,0,0,0,0,0,0,0,0,0,0,0,0,0,0,0,0,0,-0.8959,-0.8959,0,-0.8978,-0.8978,-0.8978,-0.8964,-0.8963,-0.8963,-0.8962,-0.8982,-0.8983,-0.8985,0,0,0,0,0,0,0,0,0,0,0,0,0,-0.8911,-0.8912,-0.8959,-0.8959,-0.8959,-0.8978,-0.8978,-0.8978,-0.8964,-0.8963,-0.8963,-0.8962,-0.8982,-0.8983,-0.8985,0,0,0,0,0,0,0,0,0,0,0,0,0,-0.8931,-0.8912,-0.8959,-0.8955,-0.8954,-0.8978,-0.8978,-0.8978,-0.8964,-0.8963,-0.8962,-0.8962,-0.8982,-0.8983,-0.8985,-0.9014,0,0,-0.899,-0.8991,0,0,0,0,0,0,0,0,-0.893,-0.8933,-0.8955,-0.8955,-0.8955,-0.8968,-0.8968,-0.899,-0.8965,-0.8961,-0.8962,-0.8961,-0.8978,-0.898,-0.8986,-0.9015,-0.9016,-0.899,-0.8991,-0.8992,-0.8992,0,0,0,0,0,0,0,-0.8929,-0.8932,-0.8966,-0.8955,-0.8955,-0.8952,-0.8954,-0.8973,-0.8974,-0.8961,-0.896,-0.8962,-0.8978,-0.8984,-0.8986,-0.9016,-0.899,-0.8992,-0.8993,-0.8993,-0.9068,-0.9069,0,0,0,0,0,0,-0.8928,-0.8931,-0.8966,-0.8967,-0.894,-0.8953,-0.8955,-0.8964,-0.8974,-0.8975,-0.8963,-0.8961,-0.8982,-0.8984,-0.8987,-0.902,-0.8992,-0.8993,-0.8994,-0.9067,-0.9068,-0.9069,0,0,0,0,0,0,-0.8927,-0.8931,-0.8965,-0.8949,-0.8953,-0.8955,-0.8965,-0.8965,-0.8971,-0.8976,-0.8976,-0.8969,-0.8981,-0.8984,-0.9007,-0.9021,-0.8994,-0.8996,-0.9066,-0.9067,-0.9069,-0.9089,0,0,0,0,0,0,-0.8925,-0.8931,-0.8942,-0.8949,-0.8954,-0.8985,-0.8966,-0.8966,-0.8974,-0.8972,-0.8981,-0.8982,-0.8981,-0.9004,-0.9008,-0.9023,-0.8997,-0.9065,-0.9067,-0.9068,-0.9087,-0.9091,-0.9094,0,0,0,0,0,-0.8924,-0.8947,-0.8942,-0.8947,-0.8968,-0.8986,-0.8988,-0.8986,-0.8975,-0.8986,-0.8989,-0.8982,-0.9019,-0.9007,-0.9011,-0.9026,-0.9064,-0.9066,-0.9068,-0.9085,-0.909,-0.9094,0,0,0,0,0,0,-0.8942,-0.8948,-0.8943,-0.8969,-0.8977,-0.8983,-0.8997,-0.8991,-0.9003,-0.9001,-0.8997,-0.9,-0.9023,-0.9027,-0.9013,-0.9054,-0.9039,-0.9043,-0.9051,-0.9055,-0.9059,-0.9058,-0.8998,0,0,0,0,0,-0.8949,-0.8963,-0.8968,-0.8991,-0.8995,-0.8995,-0.9003,-0.9,-0.9009,-0.9012,-0.9016,-0.9024,-0.9038,-0.9047,-0.9059,-0.9087,-0.9088,-0.9099,-0.9103,-0.9106,-0.9109,-0.9123,-0.9128,-0.9077,-0.9077,-0.9077,0,0,-0.8964,-0.8969,-0.8978,-0.8994,-0.9,-0.9014,-0.8998,-0.9015,-0.9025,-0.9015,-0.9036,-0.9039,-0.9048,-0.9073,-0.9084,-0.9077,-0.9123,-0.9109,-0.9111,-0.9112,-0.9126,-0.913,-0.9135,-0.9078,-0.9078,-0.9078,0,0,-0.8999,-0.9004,-0.9023,-0.9029,-0.9037,-0.9037,-0.9042,-0.9049,-0.905,-0.9071,-0.9063,-0.9076,-0.9099,-0.9105,-0.9112,-0.9147,-0.914,-0.9151,-0.917,-0.9184,-0.9188,-0.9191,-0.9203,-0.9208,-0.9154,-0.9154,-0.9154,0,-0.9016,-0.9038,-0.9034,-0.905,-0.9057,-0.9047,-0.9066,-0.9072,-0.9085,-0.909,-0.9081,-0.9109,-0.9115,-0.9141,-0.9149,-0.9155,-0.9159,-0.915,-0.9188,-0.9191,-0.9194,-0.9206,-0.921,-0.9155,-0.9155,-0.9155,-0.9155,0,-0.9059,-0.9073,-0.9088,-0.9099,-0.9108,-0.9126,-0.9124,-0.9133,-0.913,-0.913,-0.9151,-0.9157,-0.917,-0.9176,-0.9173,-0.9201,-0.9196,-0.9188,-0.9173,-0.92,-0.9211,-0.9216,-0.9157,-0.9157,-0.9156,-0.9156,0,0,-0.9107,-0.9114,-0.912,-0.9124,-0.9132,-0.9143,-0.916,-0.9173,-0.918,-0.9189,-0.9203,-0.9222,-0.9213,-0.9221,-0.9218,-0.923,-0.9257,-0.922,-0.922,-0.9226,-0.9287,-0.9293,-0.9299,-0.9252,-0.9253,-0.9254,-0.9286,0,-0.9141,-0.917,-0.9167,-0.9195,-0.9208,-0.9198,-0.9212,-0.9219,-0.922,-0.9231,-0.9232,-0.9245,-0.9234,-0.9238,-0.9249,-0.9251,-0.9269,-0.9249,-0.9265,-0.9265,-0.9263,-0.9304,-0.9311,-0.9342,-0.929,-0.9291,-0.9292,0,-0.9186,-0.9195,-0.9224,-0.9228,-0.9234,-0.9247,-0.9257,-0.9268,-0.9275,-0.9275,-0.9282,-0.9277,-0.9293,-0.9278,-0.93,-0.9287,-0.9293,-0.9295,-0.9296,-0.9297,-0.928,-0.9307,-0.9352,-0.9356,-0.9298,-0.9298,-0.9297,0,-0.9217,-0.9237,-0.9256,-0.9261,-0.9267,-0.9276,-0.9279,-0.9284,-0.9292,-0.9301,-0.9305,-0.9316,-0.9322,-0.933,-0.9328,-0.9317,-0.9351,-0.9336,-0.9351,-0.9351,-0.9359,-0.9359,-0.9405,-0.9363,-0.9363,-0.9363,-0.9363,0,-0.9256,-0.9275,-0.927,-0.9283,-0.9302,-0.9297,-0.9317,-0.9319,-0.9323,-0.9336,-0.9328,-0.9339,-0.9335,-0.9347,-0.9345,-0.9363,-0.9366,-0.9366,-0.9366,-0.9367,-0.9367,-0.9371,-0.9369,-0.9364,-0.9364,-0.9364,-0.9364,0,-0.9295,-0.9293,-0.9314,-0.9317,-0.9318,-0.9333,-0.9336,-0.9347,-0.9346,-0.9362,-0.9365,-0.9365,-0.9377,-0.9376,-0.939,-0.9389,-0.9412,-0.9409,-0.9409,-0.9409,-0.9424,-0.9422,-0.9475,-0.9481,-0.9435,-0.9436,-0.9436,0,-0.932,-0.9334,-0.9338,-0.9345,-0.9349,-0.9361,-0.9367,-0.9363,-0.937,-0.9378,-0.9388,-0.94,-0.9409,-0.9429,-0.9431,-0.9441,-0.9438,-0.9456,-0.944,-0.944,-0.9438,-0.9437,-0.9438,-0.9459,-0.946,-0.946,-0.946,0,-0.9365,-0.9363,-0.9373,-0.9382,-0.939,-0.9398,-0.9404,-0.941,-0.9406,-0.9415,-0.9427,-0.9434,-0.9448,-0.946,-0.9469,-0.9472,-0.9466,-0.9465,-0.9469,-0.9471,-0.9471,-0.947,-0.9418,-0.9464,-0.9464,-0.9464,-0.9463,-0.9463,-0.9398,-0.9409,-0.9413,-0.9424,-0.9428,-0.9434,-0.9444,-0.9444,-0.9455,-0.9465,-0.9462,-0.9476,-0.9481,-0.9493,-0.9497,-0.9507,-0.9501,-0.9507,-0.9509,-0.951,-0.9512,-0.9469,-0.9509,-0.9509,-0.9509,-0.9509,-0.9509,0,-0.9442,-0.9443,-0.9453,-0.9462,-0.9471,-0.9462,-0.9469,-0.9477,-0.9489,-0.9494,-0.9502,-0.9516,-0.9527,-0.9528,-0.9538,-0.9546,-0.9543,-0.9549,-0.9549,-0.9549,-0.9517,-0.9512,-0.9551,-0.9551,-0.9551,-0.9551,-0.9551,-0.9551,-0.9465,-0.9483,-0.9481,-0.9501,-0.9503,-0.9516,-0.952,-0.9525,-0.9529,-0.9544,-0.9553,-0.9553,-0.9557,-0.9567,-0.9576,-0.9576,-0.958,-0.9587,-0.9586,-0.9556,-0.9552,-0.9548,-0.9543,-0.9588,-0.9588,-0.9617,-0.9617,-0.9617]},{"header":{"parameterUnit":"m.s-1","parameterCategory":1,"la1":30.2991,"la2":30.254,"lo1":-89.0895,"lo2":-89.0444,"dy":0.0017,"dx":0.0017,"nx":28,"ny":28,"refTime":"2025-12-05T09:00:00:Z","depth":0,"parameterNumber":3,"parameterNumberName":"V-component_of_WINDS"},"data":[0,0,0,0,0,0,0,0,0,0,0,0,0,0,0,0,0,0,0,0,0,0,0,0,0,0,0,0,0,0,0,0,0,0,0,0,0,0,0,0,0,0,0,0,0,0,0,0,0,0,0,0,0,0,0,0,0,0,-3.5381,-3.5382,0,-3.5451,-3.5451,-3.5452,-3.5399,-3.5396,-3.5394,-3.5392,-3.546,-3.5464,-3.5468,0,0,0,0,0,0,0,0,0,0,0,0,0,-3.5199,-3.5202,-3.5381,-3.5382,-3.5383,-3.5451,-3.5452,-3.5452,-3.5399,-3.5396,-3.5394,-3.5391,-3.5459,-3.5464,-3.5469,0,0,0,0,0,0,0,0,0,0,0,0,0,-3.5274,-3.5203,-3.5381,-3.5364,-3.5364,-3.545,-3.5452,-3.5453,-3.54,-3.5396,-3.5393,-3.539,-3.5458,-3.5463,-3.5469,-3.5575,0,0,-3.5487,-3.549,0,0,0,0,0,0,0,0,-3.527,-3.5281,-3.5366,-3.5366,-3.5365,-3.5413,-3.5412,-3.5494,-3.5401,-3.5386,-3.5392,-3.5388,-3.5447,-3.5454,-3.5474,-3.5578,-3.5581,-3.5488,-3.5492,-3.5494,-3.5496,0,0,0,0,0,0,0,-3.5265,-3.5277,-3.5408,-3.5367,-3.5367,-3.5352,-3.5359,-3.5427,-3.5435,-3.5387,-3.5383,-3.5392,-3.5446,-3.5469,-3.5475,-3.5582,-3.5488,-3.5493,-3.5497,-3.5499,-3.5777,-3.5781,0,0,0,0,0,0,-3.5261,-3.5273,-3.5406,-3.541,-3.5308,-3.5359,-3.5366,-3.5401,-3.5434,-3.5436,-3.5395,-3.539,-3.546,-3.5469,-3.5478,-3.5605,-3.5494,-3.55,-3.5503,-3.5773,-3.5778,-3.5782,0,0,0,0,0,0,-3.5258,-3.5274,-3.5403,-3.5341,-3.5356,-3.5365,-3.5404,-3.5404,-3.5426,-3.544,-3.5441,-3.5417,-3.5458,-3.5469,-3.5552,-3.5606,-3.5502,-3.5508,-3.5769,-3.5775,-3.578,-3.5859,0,0,0,0,0,0,-3.5253,-3.5273,-3.5314,-3.5342,-3.536,-3.5477,-3.5408,-3.5408,-3.5437,-3.543,-3.5461,-3.5463,-3.5456,-3.5543,-3.5558,-3.5613,-3.5512,-3.5764,-3.5771,-3.5778,-3.5852,-3.5867,-3.588,0,0,0,0,0,-3.5246,-3.5333,-3.5316,-3.5333,-3.5412,-3.5481,-3.5491,-3.5482,-3.5442,-3.5483,-3.5492,-3.5462,-3.5598,-3.5552,-3.5568,-3.5625,-3.576,-3.5769,-3.5777,-3.5845,-3.5864,-3.5879,0,0,0,0,0,0,-3.5309,-3.5336,-3.5318,-3.5416,-3.5447,-3.5472,-3.5523,-3.5502,-3.5543,-3.5535,-3.5521,-3.5528,-3.5615,-3.5628,-3.5577,-3.573,-3.5672,-3.5685,-3.5719,-3.5736,-3.575,-3.5746,-3.5517,0,0,0,0,0,-3.5335,-3.5389,-3.5409,-3.5494,-3.551,-3.5514,-3.5544,-3.5534,-3.5565,-3.5577,-3.5592,-3.5622,-3.5671,-3.5704,-3.575,-3.5853,-3.5859,-3.59,-3.5914,-3.5925,-3.5937,-3.5992,-3.6011,-3.581,-3.581,-3.581,0,0,-3.5387,-3.5409,-3.5444,-3.5507,-3.553,-3.5586,-3.5525,-3.5587,-3.5629,-3.5586,-3.5666,-3.5678,-3.571,-3.5803,-3.5845,-3.5816,-3.5993,-3.5936,-3.5946,-3.595,-3.6003,-3.6022,-3.6039,-3.5816,-3.5815,-3.5814,0,0,-3.5513,-3.5534,-3.5608,-3.5632,-3.5667,-3.5669,-3.5687,-3.5715,-3.5722,-3.5801,-3.5771,-3.5819,-3.5904,-3.5929,-3.5952,-3.6087,-3.6061,-3.6102,-3.6176,-3.6231,-3.6247,-3.6261,-3.631,-3.6327,-3.6113,-3.6113,-3.6113,0,-3.5574,-3.5659,-3.5648,-3.5713,-3.5742,-3.5706,-3.5781,-3.5804,-3.5852,-3.5872,-3.584,-3.5946,-3.5965,-3.6064,-3.6097,-3.6117,-3.6137,-3.6099,-3.6245,-3.6259,-3.6272,-3.6319,-3.6337,-3.6118,-3.6117,-3.6117,-3.6116,0,-3.5733,-3.5792,-3.5847,-3.5896,-3.593,-3.5999,-3.5998,-3.6034,-3.6021,-3.6027,-3.6108,-3.613,-3.618,-3.6202,-3.619,-3.63,-3.6281,-3.6247,-3.619,-3.6296,-3.634,-3.6358,-3.6125,-3.6123,-3.6122,-3.6121,0,0,-3.5901,-3.5943,-3.5963,-3.5985,-3.6021,-3.6067,-3.6133,-3.6184,-3.6215,-3.6249,-3.6305,-3.6378,-3.6347,-3.6374,-3.6364,-3.6412,-3.6518,-3.6372,-3.6372,-3.64,-3.6641,-3.6668,-3.6689,-3.6501,-3.6504,-3.6507,-3.6639,0,-3.6029,-3.6147,-3.614,-3.6251,-3.6305,-3.6272,-3.6331,-3.6359,-3.6365,-3.6412,-3.6418,-3.6471,-3.6425,-3.6442,-3.6487,-3.6496,-3.6567,-3.6486,-3.6553,-3.6555,-3.6548,-3.6711,-3.6739,-3.6863,-3.6656,-3.6659,-3.6661,0,-3.6195,-3.6236,-3.6353,-3.6382,-3.6404,-3.6457,-3.6503,-3.6548,-3.6578,-3.658,-3.661,-3.6592,-3.6659,-3.6599,-3.6691,-3.6636,-3.6662,-3.6671,-3.6675,-3.6682,-3.6616,-3.6724,-3.6902,-3.6921,-3.6687,-3.6685,-3.6683,0,-3.6307,-3.6391,-3.6473,-3.6492,-3.6527,-3.6565,-3.6581,-3.6609,-3.664,-3.6679,-3.6699,-3.6745,-3.6771,-3.6806,-3.6801,-3.6757,-3.6895,-3.6834,-3.6898,-3.6898,-3.693,-3.6928,-3.7116,-3.6944,-3.6944,-3.6944,-3.6943,0,-3.6452,-3.6525,-3.6524,-3.6574,-3.6655,-3.6645,-3.6725,-3.6736,-3.6761,-3.6812,-3.6785,-3.6834,-3.6823,-3.6871,-3.6867,-3.6944,-3.6955,-3.6958,-3.6957,-3.6962,-3.6962,-3.698,-3.6972,-3.6949,-3.6948,-3.6947,-3.6946,0,-3.6592,-3.6594,-3.6681,-3.6707,-3.6715,-3.6774,-3.6796,-3.6843,-3.6847,-3.6912,-3.6926,-3.6933,-3.6988,-3.6986,-3.7047,-3.7045,-3.714,-3.7128,-3.7131,-3.7129,-3.7193,-3.7188,-3.7401,-3.7429,-3.7238,-3.724,-3.7241,0,-3.6685,-3.6741,-3.6774,-3.6807,-3.6826,-3.6879,-3.6911,-3.6902,-3.6936,-3.6975,-3.7018,-3.7071,-3.7113,-3.7202,-3.7211,-3.7259,-3.7248,-3.7319,-3.7255,-3.7259,-3.7251,-3.7248,-3.7254,-3.7333,-3.7335,-3.7336,-3.7338,0,-3.6851,-3.6849,-3.6897,-3.6945,-3.6984,-3.7021,-3.7055,-3.7083,-3.7078,-3.7117,-3.7174,-3.7207,-3.7271,-3.7324,-3.7369,-3.7384,-3.7361,-3.7358,-3.7375,-3.7382,-3.7382,-3.7385,-3.7167,-3.7353,-3.7352,-3.7351,-3.735,-3.7349,-3.6971,-3.702,-3.7051,-3.7105,-3.7129,-3.7162,-3.7208,-3.7218,-3.7266,-3.7318,-3.7309,-3.7373,-3.7402,-3.7461,-3.748,-3.7529,-3.7504,-3.7529,-3.7536,-3.7542,-3.7551,-3.7373,-3.7537,-3.7537,-3.7536,-3.7536,-3.7536,0,-3.7137,-3.7155,-3.7205,-3.7254,-3.7296,-3.7271,-3.7307,-3.7344,-3.7401,-3.743,-3.7473,-3.7538,-3.7589,-3.7603,-3.7652,-3.7688,-3.7679,-3.7702,-3.77,-3.7704,-3.757,-3.755,-3.7709,-3.7709,-3.7709,-3.7709,-3.7709,-3.7709,-3.7228,-3.7309,-3.7311,-3.7404,-3.7421,-3.7485,-3.7508,-3.7538,-3.7562,-3.7636,-3.7679,-3.7688,-3.7711,-3.7762,-3.7807,-3.781,-3.783,-3.7857,-3.7856,-3.773,-3.7713,-3.7697,-3.7679,-3.7861,-3.7862,-3.7986,-3.7987,-3.7988]}]]